STARLINK-1971 (47572 NORAD) Tracking and Keplerian Element Data

This shows tracking and keplerian element data for the satellite.

Feedback or suggestion? Click here.




ElementValue
Catalog47572
NameSTARLINK-1971
Epoch Orbit1076
Epoch Day99.91667824
Epoch Year2021
RAAN167.3174
Inclination53.0523
Eccentricity0.0003464
Argument of Perigee16.0271
Mean Anonmoly137.5494
Mean Motion15.62664457
Decay Rate0.00021019
L11 47572U 21009AA 21099.91667824 .00021019 00000-0 23558-3 0 9990
L22 47572 53.0523 167.3174 0003464 16.0271 137.5494 15.62664457 10761

Live tracking and technical data element details for STARLINK-1971 (NORAD 47572). STARLINK-1971 can be tracked NOW for your location showing map with azimuth and elevation plus other details from your city location.

Track the satellite on the map from your city or location and see movement details for azimuth, elevation, latitude, longitude, range, height, and movement on the map or in text.







IsCatalogInMostPopularTable: catalog: 47572, numindb: 17
Update: records affected: 1



GetName: 47572 STARLINK-1971

Hit Count: updated at: Sat, 10 Apr 2021 19:41:09 GMT